Location: ?ejkovice
(49.0137°N, 14.3821°E)
Time: 11:49:26
(UTC+00:00)

Cosmos 968 Rocket - Pass Details

Date: 06 August 2024
Orbit: 738 x 767 km, 74.0° (Epoch: 15 September)

Event Time Altitude Azimuth Distance (km) Brightness Sun altitude
Rises 19:21:51 0° 342° (NNW) 3,235 7.7 -7.7°
Reaches altitude 10° 19:24:33 10° 354° (N) 2,300 6.6 -8.0°
Maximum altitude 19:29:03 28° 53° (NE) 1,386 4.7 -8.6°
Enters shadow 19:33:22 11° 112° (ESE) 2,238 5.3 -9.2°
